TimeEDT,TemperatureF,Dew PointF,Humidity,Sea Level PressureIn,VisibilityMPH,Wind Direction,Wind SpeedMPH,Gust SpeedMPH,PrecipitationIn,Events,Conditions,WindDirDegrees,DateUTC
12:15 AM,69.8,62.6,78,29.83,10.0,South,13.8,20.7,N/A,,Overcast,190,2013-04-12 04:15:00
12:35 AM,69.8,62.6,78,29.83,10.0,South,11.5,17.3,N/A,,Overcast,190,2013-04-12 04:35:00
12:55 AM,71.6,62.6,73,29.82,10.0,South,11.5,-,N/A,,Overcast,190,2013-04-12 04:55:00
1:15 AM,71.6,62.6,73,29.83,10.0,SSW,15.0,21.9,N/A,,Overcast,200,2013-04-12 05:15:00
1:35 AM,71.6,62.6,73,29.82,10.0,SSW,16.1,25.3,N/A,,Overcast,200,2013-04-12 05:35:00
1:55 AM,71.6,62.6,73,29.81,10.0,SSW,16.1,19.6,N/A,,Overcast,200,2013-04-12 05:55:00
2:15 AM,71.6,62.6,73,29.80,10.0,South,15.0,23.0,N/A,,Mostly Cloudy,190,2013-04-12 06:15:00
2:35 AM,71.6,62.6,73,29.79,10.0,South,12.7,20.7,N/A,,Overcast,190,2013-04-12 06:35:00
2:55 AM,71.6,62.6,73,29.78,10.0,South,12.7,20.7,N/A,,Overcast,190,2013-04-12 06:55:00
3:15 AM,71.6,62.6,73,29.77,10.0,South,13.8,21.9,N/A,,Overcast,190,2013-04-12 07:15:00
3:35 AM,71.6,62.6,73,29.76,10.0,South,11.5,25.3,N/A,,Overcast,180,2013-04-12 07:35:00
3:55 AM,71.6,62.6,73,29.76,10.0,South,15.0,21.9,N/A,,Overcast,190,2013-04-12 07:55:00
4:15 AM,69.8,62.6,78,29.75,10.0,South,17.3,27.6,N/A,,Overcast,190,2013-04-12 08:15:00
4:35 AM,68.0,62.6,83,29.76,7.0,SSW,12.7,20.7,0.17,Thunderstorm,Thunderstorm,200,2013-04-12 08:35:00
4:55 AM,68.0,62.6,83,29.76,10.0,South,10.4,18.4,0.20,,Overcast,190,2013-04-12 08:55:00
5:15 AM,68.0,62.6,83,29.76,10.0,SSW,12.7,16.1,N/A,Thunderstorm,Thunderstorm,200,2013-04-12 09:15:00
5:35 AM,68.0,62.6,83,29.74,10.0,South,10.4,20.7,0.03,,Overcast,170,2013-04-12 09:35:00
5:55 AM,66.2,62.6,88,29.73,9.0,South,9.2,20.7,0.17,,Overcast,170,2013-04-12 09:55:00
6:15 AM,66.2,62.6,88,29.74,10.0,SSW,8.1,16.1,0.01,,Overcast,210,2013-04-12 10:15:00
6:35 AM,66.2,62.6,88,29.75,10.0,SSW,16.1,20.7,0.09,,Mostly Cloudy,210,2013-04-12 10:35:00
6:55 AM,66.2,62.6,88,29.75,10.0,SSW,12.7,18.4,0.10,,Overcast,210,2013-04-12 10:55:00
7:15 AM,66.2,62.6,88,29.75,10.0,South,12.7,16.1,0.01,,Overcast,190,2013-04-12 11:15:00
7:35 AM,66.2,62.6,88,29.76,10.0,South,9.2,-,0.01,,Overcast,190,2013-04-12 11:35:00
7:55 AM,66.2,62.6,88,29.76,10.0,SSW,12.7,16.1,0.01,,Overcast,200,2013-04-12 11:55:00
8:15 AM,66.2,62.6,88,29.75,10.0,South,12.7,-,N/A,,Overcast,180,2013-04-12 12:15:00
8:35 AM,68.0,62.6,83,29.75,10.0,SSW,12.7,17.3,N/A,,Overcast,200,2013-04-12 12:35:00
8:55 AM,68.0,64.4,88,29.75,10.0,SSW,11.5,16.1,N/A,,Overcast,200,2013-04-12 12:55:00
9:15 AM,69.8,64.4,83,29.75,10.0,SSW,10.4,18.4,N/A,,Overcast,200,2013-04-12 13:15:00
9:35 AM,69.8,64.4,83,29.75,10.0,SW,15.0,-,N/A,,Mostly Cloudy,220,2013-04-12 13:35:00
9:55 AM,71.6,64.4,78,29.74,10.0,SW,13.8,24.2,N/A,,Mostly Cloudy,220,2013-04-12 13:55:00
10:15 AM,71.6,64.4,78,29.74,10.0,SSW,16.1,20.7,N/A,,Mostly Cloudy,200,2013-04-12 14:15:00
10:55 AM,71.6,64.4,78,29.75,10.0,SW,17.3,-,N/A,,Overcast,230,2013-04-12 14:55:00
11:15 AM,75.2,66.2,73,29.74,10.0,SW,12.7,18.4,N/A,,Overcast,220,2013-04-12 15:15:00
11:35 AM,77.0,64.4,65,29.73,10.0,SW,13.8,20.7,N/A,,Mostly Cloudy,230,2013-04-12 15:35:00
11:55 AM,75.2,64.4,69,29.73,10.0,SSW,16.1,25.3,N/A,,Overcast,210,2013-04-12 15:55:00
12:15 PM,75.2,64.4,69,29.72,10.0,SW,17.3,23.0,N/A,,Overcast,230,2013-04-12 16:15:00
12:35 PM,66.2,60.8,83,29.75,8.0,WSW,11.5,25.3,0.09,,Mostly Cloudy,250,2013-04-12 16:35:00
12:55 PM,68.0,62.6,83,29.73,10.0,WSW,5.8,-,0.11,,Mostly Cloudy,250,2013-04-12 16:55:00
1:15 PM,69.8,64.4,83,29.72,10.0,WSW,5.8,-,N/A,,Mostly Cloudy,240,2013-04-12 17:15:00
1:35 PM,71.6,64.4,78,29.71,10.0,WSW,6.9,-,N/A,,Scattered Clouds,240,2013-04-12 17:35:00
1:55 PM,73.4,64.4,73,29.71,10.0,West,5.8,-,N/A,,Mostly Cloudy,260,2013-04-12 17:55:00
2:15 PM,75.2,64.4,69,29.71,10.0,SW,9.2,-,N/A,,Mostly Cloudy,230,2013-04-12 18:15:00
2:35 PM,75.2,64.4,69,29.70,10.0,SW,9.2,-,N/A,,Overcast,220,2013-04-12 18:35:00
2:55 PM,78.8,64.4,61,29.69,10.0,West,10.4,-,N/A,,Overcast,260,2013-04-12 18:55:00
3:15 PM,78.8,62.6,57,29.68,10.0,WNW,11.5,20.7,N/A,,Mostly Cloudy,290,2013-04-12 19:15:00
3:35 PM,80.6,60.8,51,29.67,10.0,WSW,8.1,23.0,N/A,,Mostly Cloudy,250,2013-04-12 19:35:00
3:55 PM,80.6,59.0,48,29.66,10.0,West,16.1,24.2,N/A,,Mostly Cloudy,260,2013-04-12 19:55:00
4:15 PM,80.6,59.0,48,29.66,10.0,West,12.7,23.0,N/A,,Mostly Cloudy,270,2013-04-12 20:15:00
4:35 PM,80.6,57.2,45,29.66,9.0,WSW,24.2,34.5,N/A,,Mostly Cloudy,250,2013-04-12 20:35:00
4:55 PM,80.6,57.2,45,29.66,10.0,WSW,16.1,24.2,N/A,,Overcast,250,2013-04-12 20:55:00
5:15 PM,80.6,55.4,42,29.66,10.0,WSW,15.0,27.6,N/A,,Overcast,250,2013-04-12 21:15:00
5:35 PM,80.6,55.4,42,29.65,10.0,SW,17.3,24.2,N/A,,Overcast,230,2013-04-12 21:35:00
5:55 PM,80.6,53.6,39,29.65,10.0,WSW,18.4,28.8,N/A,,Overcast,240,2013-04-12 21:55:00
6:15 PM,80.6,55.4,42,29.65,10.0,WSW,19.6,26.5,N/A,,Overcast,240,2013-04-12 22:15:00
6:35 PM,80.6,51.8,37,29.65,10.0,WSW,16.1,24.2,N/A,,Overcast,250,2013-04-12 22:35:00
6:55 PM,78.8,50.0,36,29.66,10.0,WSW,8.1,21.9,N/A,,Overcast,250,2013-04-12 22:55:00
7:15 PM,78.8,50.0,36,29.67,10.0,SW,11.5,-,N/A,,Overcast,230,2013-04-12 23:15:00
7:35 PM,77.0,50.0,39,29.68,10.0,WSW,10.4,17.3,N/A,,Mostly Cloudy,240,2013-04-12 23:35:00
7:55 PM,75.2,46.4,36,29.69,10.0,WSW,12.7,16.1,N/A,,Partly Cloudy,240,2013-04-12 23:55:00
8:15 PM,73.4,44.6,36,29.70,10.0,WSW,6.9,-,N/A,,Clear,240,2013-04-13 00:15:00
8:35 PM,71.6,46.4,41,29.70,10.0,SW,10.4,-,N/A,,Clear,230,2013-04-13 00:35:00
8:55 PM,71.6,44.6,38,29.71,10.0,WSW,9.2,-,N/A,,Clear,240,2013-04-13 00:55:00
9:15 PM,71.6,44.6,38,29.72,10.0,WSW,8.1,-,N/A,,Clear,240,2013-04-13 01:15:00
9:35 PM,71.6,42.8,35,29.73,10.0,WSW,11.5,17.3,N/A,,Clear,250,2013-04-13 01:35:00
9:55 PM,71.6,39.2,31,29.73,10.0,WSW,12.7,-,N/A,,Clear,250,2013-04-13 01:55:00
10:15 PM,71.6,39.2,31,29.74,10.0,WSW,11.5,18.4,N/A,,Clear,250,2013-04-13 02:15:00
10:35 PM,71.6,37.4,29,29.75,10.0,WSW,8.1,-,N/A,,Clear,250,2013-04-13 02:35:00
10:55 PM,69.8,37.4,31,29.76,10.0,WSW,9.2,-,N/A,,Clear,250,2013-04-13 02:55:00
11:15 PM,69.8,39.2,33,29.77,10.0,West,6.9,-,N/A,,Clear,260,2013-04-13 03:15:00
11:35 PM,68.0,39.2,35,29.79,9.0,Calm,Calm,-,N/A,,Clear,0,2013-04-13 03:35:00
11:55 PM,66.2,39.2,37,29.79,10.0,West,4.6,-,N/A,,Clear,280,2013-04-13 03:55:00